TimeGMT,TemperatureF,Dew PointF,Humidity,Sea Level PressureIn,VisibilityMPH,Wind Direction,Wind SpeedMPH,Gust SpeedMPH,PrecipitationIn,Events,Conditions,WindDirDegrees,DateUTC
12:50 AM,50.0,39.2,66,30.18,6.2,West,11.5,-,N/A,,Mostly Cloudy,280,2012-11-07 00:50:00
1:50 AM,50.0,39.2,66,30.18,6.2,West,13.8,-,N/A,,Mostly Cloudy,280,2012-11-07 01:50:00
2:50 AM,49,42,68,30.19,12,West,10.4,,,,Overcast,260,2012-11-07 02:50:00
2:50 AM,50.0,41.0,71,30.18,6.2,West,10.4,-,N/A,,Overcast,260,2012-11-07 02:50:00
3:50 AM,48.2,41.0,76,30.18,6.2,West,11.5,-,N/A,,Overcast,260,2012-11-07 03:50:00
4:50 AM,50.0,39.2,66,30.15,6.2,West,15.0,-,N/A,,Overcast,270,2012-11-07 04:50:00
5:20 AM,50.0,41.0,71,30.15,6.2,West,16.1,-,N/A,,Overcast,270,2012-11-07 05:20:00
5:50 AM,49,41,66,30.18,12,West,16.1,,,,Mostly Cloudy,270,2012-11-07 05:50:00
5:50 AM,50.0,41.0,71,30.15,6.2,West,16.1,-,N/A,,Mostly Cloudy,270,2012-11-07 05:50:00
6:20 AM,50.0,41.0,71,30.15,6.2,West,16.1,-,N/A,,Mostly Cloudy,260,2012-11-07 06:20:00
6:50 AM,50.0,42.8,76,30.15,6.2,West,17.3,-,N/A,,Light Drizzle,260,2012-11-07 06:50:00
7:20 AM,50.0,44.6,82,30.15,6.2,West,16.1,-,N/A,,Overcast,260,2012-11-07 07:20:00
7:50 AM,50.0,42.8,76,30.15,6.2,West,16.1,-,N/A,,Overcast,260,2012-11-07 07:50:00
8:20 AM,50.0,44.6,82,30.15,6.2,WSW,18.4,-,N/A,Rain,Light Rain,250,2012-11-07 08:20:00
8:50 AM,50,43,68,30.16,12,WSW,20.7,,,Rain,Light Rain,250,2012-11-07 08:50:00
8:50 AM,50.0,42.8,76,30.15,6.2,WSW,20.7,-,N/A,Rain,Light Rain,250,2012-11-07 08:50:00
9:20 AM,50.0,42.8,76,30.15,6.2,WSW,19.6,-,N/A,,Mostly Cloudy,250,2012-11-07 09:20:00
9:50 AM,51.8,42.8,71,30.15,6.2,WSW,19.6,-,N/A,,Mostly Cloudy,250,2012-11-07 09:50:00
10:20 AM,51.8,44.6,76,30.12,6.2,WSW,20.7,-,N/A,,Mostly Cloudy,250,2012-11-07 10:20:00
10:50 AM,51.8,44.6,76,30.12,6.2,WSW,21.9,-,N/A,,Mostly Cloudy,240,2012-11-07 10:50:00
11:20 AM,50.0,44.6,82,30.12,6.2,WSW,18.4,-,N/A,,Overcast,250,2012-11-07 11:20:00
11:50 AM,51,45,74,30.13,16,WSW,19.6,,,,Partly Cloudy,250,2012-11-07 11:50:00
11:50 AM,51.8,44.6,76,30.12,6.2,WSW,19.6,-,N/A,,Mostly Cloudy,250,2012-11-07 11:50:00
12:20 PM,51.8,46.4,82,30.09,6.2,WSW,23.0,-,N/A,,Mostly Cloudy,240,2012-11-07 12:20:00
12:50 PM,51.8,46.4,82,30.09,6.2,WSW,24.2,-,N/A,,Mostly Cloudy,240,2012-11-07 12:50:00
1:20 PM,51.8,46.4,82,30.09,6.2,WSW,21.9,34.5,N/A,,Mostly Cloudy,240,2012-11-07 13:20:00
1:50 PM,51.8,46.4,82,30.06,6.2,WSW,23.0,34.5,N/A,,Overcast,240,2012-11-07 13:50:00
2:20 PM,51.8,46.4,82,30.06,6.2,WSW,19.6,-,N/A,,Mostly Cloudy,240,2012-11-07 14:20:00
2:50 PM,53,46,71,30.07,11,WSW,20.7,,,Rain,Light Rain,240,2012-11-07 14:50:00
2:50 PM,51.8,46.4,82,30.06,6.2,WSW,20.7,-,N/A,,Mostly Cloudy,240,2012-11-07 14:50:00
3:20 PM,51.8,46.4,82,30.06,6.2,WSW,21.9,-,N/A,,Mostly Cloudy,240,2012-11-07 15:20:00
3:50 PM,51.8,46.4,82,30.04,6.2,WSW,25.3,-,N/A,,Mostly Cloudy,240,2012-11-07 15:50:00
4:20 PM,53.6,46.4,77,30.04,6.2,WSW,23.0,-,N/A,,Mostly Cloudy,240,2012-11-07 16:20:00
4:50 PM,53.6,48.2,82,30.04,6.2,WSW,24.2,36.8,N/A,,Mostly Cloudy,240,2012-11-07 16:50:00
5:20 PM,51.8,48.2,88,30.01,3.1,WSW,26.5,-,N/A,Rain,Light Rain,240,2012-11-07 17:20:00
5:50 PM,53,48,77,30.03,7,WSW,23.0,,,Rain,Light Rain,240,2012-11-07 17:50:00
5:50 PM,53.6,48.2,82,30.01,6.2,WSW,23.0,34.5,N/A,Rain,Light Rain,240,2012-11-07 17:50:00
6:20 PM,51.8,48.2,88,30.01,6.2,WSW,24.2,38.0,N/A,,Overcast,240,2012-11-07 18:20:00
6:50 PM,51.8,48.2,88,30.01,6.2,WSW,23.0,-,N/A,,Overcast,250,2012-11-07 18:50:00
7:20 PM,51.8,46.4,82,30.01,6.2,West,24.2,-,N/A,,Mostly Cloudy,260,2012-11-07 19:20:00
7:50 PM,51.8,46.4,82,30.01,6.2,West,23.0,-,N/A,,Scattered Clouds,260,2012-11-07 19:50:00
8:20 PM,51.8,46.4,82,30.01,6.2,West,21.9,-,N/A,,Scattered Clouds,260,2012-11-07 20:20:00
8:50 PM,50,45,77,30.01,16,West,20.7,,,,Partly Cloudy,260,2012-11-07 20:50:00
8:50 PM,50.0,44.6,82,30.01,6.2,West,20.7,32.2,N/A,,Partly Cloudy,260,2012-11-07 20:50:00
9:50 PM,50.0,44.6,82,30.01,6.2,West,20.7,-,N/A,,Mostly Cloudy,260,2012-11-07 21:50:00
10:50 PM,50.0,44.6,82,30.01,6.2,West,21.9,35.7,N/A,,Mostly Cloudy,260,2012-11-07 22:50:00
11:50 PM,51,45,74,30.01,19,West,21.9,,,,Partly Cloudy,260,2012-11-07 23:50:00
11:50 PM,50.0,44.6,82,30.01,6.2,West,21.9,-,N/A,,Mostly Cloudy,260,2012-11-07 23:50:00